�N����,����,�~����,�C��,���x,�C��,����,���ϕ���,�ő�u�ԕ���,�ő厞����,���˗�,�I�_���x,�n�����x,�ő啗���N��,DTYPE
"22/07/18","00:10",0.0,24.2,91.2,997.7,290.5,0.6,1.2,335.7,0.00,22.7,25.2,"00:02:24",1
"22/07/18","00:20",0.0,24.1,91.3,997.7,296.7,0.7,1.2,313.3,0.00,22.6,24.8,"00:19:20",1
"22/07/18","00:30",0.0,24.0,91.5,997.7,303.1,1.0,1.4,320.5,0.00,22.6,24.9,"00:21:04",1
"22/07/18","00:40",0.0,24.1,91.6,997.7,327.8,1.2,1.7,337.7,0.00,22.7,24.8,"00:37:04",1
"22/07/18","00:50",0.0,24.0,91.8,997.2,303.9,0.8,1.7,326.1,0.00,22.6,25.0,"00:41:04",1
"22/07/18","01:00",0.0,23.8,91.9,997.2,257.3,0.2,0.5,279.3,0.00,22.4,24.8,"00:57:12",1
"22/07/18","01:10",0.0,23.8,92.0,997.7,275.8,1.0,1.3,258.7,0.00,22.5,24.9,"01:05:20",1
"22/07/18","01:20",0.0,23.9,92.3,997.2,327.6,1.1,1.7,355.0,0.00,22.6,24.9,"01:19:04",1
"22/07/18","01:30",0.0,23.8,92.3,997.7,293.4,0.6,1.1,344.9,0.00,22.5,24.8,"01:21:44",1
"22/07/18","01:40",0.0,23.7,92.5,997.4,311.3,1.2,1.6,322.8,0.00,22.5,24.9,"01:33:20",1
"22/07/18","01:50",0.0,23.5,92.6,997.7,308.8,0.8,1.6,324.0,0.00,22.3,24.9,"01:43:44",1
"22/07/18","02:00",0.0,23.4,92.7,997.4,292.4,0.5,1.0,272.0,0.00,22.2,24.8,"01:50:24",1
"22/07/18","02:10",0.0,23.4,92.8,997.9,263.5,0.7,1.0,262.9,0.00,22.2,24.8,"02:06:00",1
"22/07/18","02:20",0.0,23.3,93.0,997.9,300.4,1.1,1.4,314.3,0.00,22.1,24.7,"02:18:00",1
"22/07/18","02:30",0.0,23.3,93.0,997.9,329.7,1.1,1.8,342.5,0.00,22.1,24.7,"02:20:40",1
"22/07/18","02:40",0.0,23.3,93.1,997.9,292.6,0.8,1.2,258.6,0.00,22.2,24.8,"02:35:52",1
"22/07/18","02:50",0.0,23.2,93.2,997.7,312.9,0.8,1.1,308.7,0.00,22.1,24.8,"02:43:12",1
"22/07/18","03:00",0.0,23.2,93.3,997.7,329.2,0.8,1.3,326.6,0.00,22.1,24.8,"02:55:44",1
"22/07/18","03:10",0.0,23.2,93.4,997.7,284.8,0.8,1.2,317.6,0.00,22.1,24.7,"03:06:16",1
"22/07/18","03:20",0.0,23.1,93.5,998.2,313.9,0.8,1.4,321.9,0.00,22.0,24.7,"03:13:28",1
"22/07/18","03:30",0.0,23.1,93.5,997.9,304.0,0.7,1.2,321.5,0.00,22.0,24.8,"03:20:02",1
"22/07/18","03:40",0.0,23.3,93.6,998.2,330.5,1.2,1.6,328.9,0.00,22.2,24.7,"03:31:04",1
"22/07/18","03:50",0.0,23.3,93.6,998.2,319.4,1.1,1.6,339.5,0.00,22.2,24.7,"03:40:48",1
"22/07/18","04:00",0.0,23.3,93.7,998.2,312.1,1.1,1.7,318.6,0.00,22.3,24.5,"03:50:16",1
"22/07/18","04:10",0.0,23.2,93.8,998.2,303.8,1.1,2.1,329.4,0.00,22.2,24.6,"04:01:52",1
"22/07/18","04:20",0.0,23.2,93.9,997.9,303.0,1.2,1.8,338.7,0.00,22.2,24.5,"04:16:08",1
"22/07/18","04:30",0.0,23.2,93.9,998.4,250.9,0.5,1.3,330.5,0.00,22.2,24.6,"04:20:08",1
"22/07/18","04:40",0.0,23.3,93.9,998.2,325.2,1.0,1.6,309.3,0.00,22.3,24.6,"04:32:48",1
"22/07/18","04:50",0.0,23.3,93.9,998.6,327.5,1.2,2.2,344.4,0.00,22.3,24.5,"04:49:20",1
"22/07/18","05:00",0.0,23.2,94.0,998.9,325.0,1.2,1.9,341.7,0.00,22.2,24.7,"04:51:04",1
"22/07/18","05:10",0.0,23.2,94.0,999.1,302.8,0.8,1.3,318.9,0.00,22.2,24.6,"05:01:36",1
"22/07/18","05:20",0.0,23.2,94.0,998.6,308.1,0.3,1.0,316.0,0.00,22.2,24.6,"05:12:56",1
"22/07/18","05:30",0.0,23.1,94.0,998.4,265.7,0.7,1.1,270.6,0.00,22.1,24.5,"05:25:12",1
"22/07/18","05:40",0.0,23.1,94.1,998.6,312.1,1.1,1.7,322.1,0.00,22.1,24.5,"05:39:28",1
"22/07/18","05:50",0.0,23.0,94.2,998.9,306.9,1.2,1.9,337.6,0.00,22.1,24.6,"05:41:28",1
"22/07/18","06:00",0.0,23.0,94.3,999.1,325.1,1.5,2.5,340.0,0.00,22.1,24.6,"05:56:32",1
"22/07/18","06:10",0.0,23.0,94.3,999.1,313.6,1.3,2.4,330.2,0.00,22.1,24.5,"06:02:32",1
"22/07/18","06:20",0.0,23.0,94.4,999.1,298.9,1.1,1.8,329.0,0.00,22.1,24.5,"06:16:16",1
"22/07/18","06:30",0.0,23.1,94.4,999.6,297.6,1.0,1.3,315.0,0.00,22.2,24.5,"06:27:44",1
"22/07/18","06:40",0.0,23.3,94.4,998.9,306.7,1.0,1.7,327.0,0.00,22.4,24.6,"06:37:20",1
"22/07/18","06:50",0.0,23.4,94.5,999.6,282.5,0.6,1.0,337.3,0.00,22.5,24.4,"06:41:52",1
"22/07/18","07:00",0.0,23.4,94.4,999.3,287.9,0.7,1.3,278.5,0.00,22.5,24.3,"06:51:12",1
"22/07/18","07:10",0.0,23.5,94.5,999.1,337.2,0.7,1.9,348.0,0.01,22.6,24.5,"07:07:44",1
"22/07/18","07:20",0.0,23.7,94.4,999.6,327.7,1.5,2.1,314.6,0.01,22.8,24.5,"07:18:32",1
"22/07/18","07:30",0.0,23.5,94.4,999.8,285.1,1.1,2.2,322.5,0.00,22.6,24.4,"07:21:12",1
"22/07/18","07:40",0.0,23.8,94.5,999.6,281.2,0.5,1.9,308.6,0.03,22.9,24.5,"07:30:24",1
"22/07/18","07:50",0.0,24.2,94.4,999.3,282.1,0.3,1.1,313.1,0.06,23.3,24.2,"07:49:28",1
"22/07/18","08:00",0.0,24.5,94.3,999.3,267.3,0.7,1.1,260.4,0.09,23.6,24.3,"07:58:32",1
"22/07/18","08:10",0.0,25.0,94.1,999.1,269.1,0.6,0.9,267.8,0.11,24.0,24.5,"08:03:20",1
"22/07/18","08:20",0.0,25.2,93.8,999.3,273.5,0.7,1.2,254.2,0.11,24.2,24.5,"08:12:16",1
"22/07/18","08:30",0.0,25.6,93.5,999.6,251.0,0.5,1.3,248.9,0.18,24.5,24.3,"08:21:28",1
"22/07/18","08:40",0.0,25.7,92.4,999.3,222.7,0.2,0.9,189.5,0.14,24.4,24.5,"08:30:24",1
"22/07/18","08:50",0.0,26.2,91.8,999.8,186.4,0.6,1.4,158.2,0.23,24.8,24.4,"08:48:16",1
"22/07/18","09:00",0.0,26.5,90.3,999.1,238.6,0.6,1.6,235.5,0.20,24.8,24.5,"08:52:00",1
"22/07/18","09:10",0.0,26.4,88.2,999.3,230.6,0.5,1.1,241.1,0.08,24.3,24.5,"09:05:20",1
"22/07/18","09:20",0.0,26.3,86.9,999.1,212.1,0.8,2.2,234.2,0.09,24.0,24.3,"09:17:36",1
"22/07/18","09:30",0.0,27.2,85.5,998.6,185.5,0.3,0.9,206.3,0.19,24.6,24.4,"09:26:32",1
"22/07/18","09:40",0.0,27.8,82.7,999.6,326.7,0.7,2.2,356.6,0.28,24.6,24.5,"09:39:44",1
"22/07/18","09:50",0.0,28.0,80.0,999.6,84.9,0.8,1.8,12.9,0.22,24.3,24.4,"09:40:08",1
"22/07/18","10:00",0.0,28.7,78.8,1000.0,110.5,0.7,1.7,349.0,0.32,24.7,24.6,"09:56:56",1
"22/07/18","10:10",0.0,29.1,76.4,1000.5,164.6,1.0,1.8,155.8,0.38,24.6,24.5,"10:02:32",1
"22/07/18","10:20",0.0,30.0,75.3,1000.8,130.5,0.8,1.9,25.6,0.42,25.2,24.4,"10:16:08",1
"22/07/18","10:30",0.0,30.6,71.1,1001.2,34.5,1.0,2.1,354.6,0.42,24.8,24.5,"10:23:52",1
"22/07/18","10:40",0.0,30.7,69.4,1001.2,42.3,0.6,1.8,79.7,0.30,24.5,24.6,"10:38:08",1
"22/07/18","10:50",0.0,30.9,69.8,1001.0,61.2,0.6,2.5,347.2,0.28,24.8,24.6,"10:40:16",1
"22/07/18","11:00",0.0,30.2,68.5,1001.0,82.3,0.7,1.9,42.9,0.20,23.8,24.7,"10:58:24",1
"22/07/18","11:10",0.0,29.5,69.0,1000.5,158.9,1.3,2.8,194.0,0.17,23.3,24.7,"11:07:28",1
"22/07/18","11:20",0.0,29.1,70.3,999.8,191.4,1.5,3.1,231.3,0.15,23.2,24.7,"11:15:28",1
"22/07/18","11:30",0.0,28.8,71.5,999.8,204.7,1.3,2.9,205.8,0.10,23.2,24.8,"11:29:36",1
"22/07/18","11:40",0.0,29.0,70.2,999.6,234.8,1.6,3.3,212.4,0.15,23.1,24.8,"11:30:08",1
"22/07/18","11:50",0.0,29.1,71.3,999.3,195.9,1.5,2.7,219.0,0.16,23.4,24.5,"11:40:16",1
"22/07/18","12:00",0.0,28.8,72.8,999.1,182.5,1.6,3.7,212.5,0.16,23.5,24.8,"11:54:24",1
"22/07/18","12:10",0.0,28.8,72.7,998.9,195.9,2.2,3.6,233.4,0.17,23.4,24.8,"12:05:12",1
"22/07/18","12:20",0.0,28.6,73.3,998.9,188.9,2.1,3.9,186.0,0.15,23.4,24.7,"12:13:36",1
"22/07/18","12:30",0.0,28.7,73.0,999.1,203.6,2.0,3.6,236.8,0.17,23.4,24.9,"12:24:32",1
"22/07/18","12:40",0.0,28.8,73.4,998.6,185.1,1.8,3.3,228.2,0.18,23.6,25.0,"12:30:40",1
"22/07/18","12:50",0.0,29.0,73.5,998.9,171.3,1.3,3.3,148.6,0.17,23.8,24.9,"12:43:52",1
"22/07/18","13:00",0.0,29.3,73.0,998.9,194.1,1.2,2.7,175.5,0.20,24.0,25.0,"12:53:28",1
"22/07/18","13:10",0.0,29.8,69.9,999.1,231.0,1.5,3.2,227.4,0.33,23.8,24.9,"13:04:16",1
"22/07/18","13:20",0.0,31.4,67.5,999.8,181.3,0.8,2.2,179.7,0.51,24.7,24.8,"13:12:16",1
"22/07/18","13:30",0.0,31.6,66.5,1000.3,161.0,0.8,2.7,200.5,0.36,24.6,24.9,"13:21:44",1
"22/07/18","13:40",0.0,31.2,65.3,1000.0,176.8,1.3,3.1,227.1,0.34,24.0,24.9,"13:34:32",1
"22/07/18","13:50",0.0,31.4,66.6,1000.0,173.2,1.0,2.2,153.6,0.41,24.5,24.8,"13:46:16",1
"22/07/18","14:00",0.0,31.5,65.4,1000.3,259.2,1.2,2.8,196.0,0.44,24.3,25.0,"13:51:28",1
"22/07/18","14:10",0.0,31.7,64.5,1000.3,170.6,1.0,2.0,214.0,0.34,24.2,25.1,"14:01:52",1
"22/07/18","14:20",0.0,32.2,64.5,1000.3,251.3,0.8,2.5,235.5,0.42,24.7,24.8,"14:13:04",1
"22/07/18","14:30",0.0,32.0,63.9,1000.8,144.2,0.8,2.4,196.9,0.28,24.3,25.1,"14:22:24",1
"22/07/18","14:40",0.0,32.1,60.8,1000.3,40.3,1.1,2.4,358.3,0.39,23.6,25.2,"14:37:36",1
"22/07/18","14:50",0.0,32.6,60.9,1000.3,9.8,0.8,1.9,353.4,0.39,24.1,25.2,"14:42:24",1
"22/07/18","15:00",0.0,32.2,60.8,1000.3,96.1,0.8,1.7,24.6,0.26,23.7,25.5,"14:56:24",1
"22/07/18","15:10",0.0,31.9,62.6,1000.3,205.7,1.0,2.9,215.8,0.30,23.9,25.1,"15:02:24",1
"22/07/18","15:20",0.0,32.7,60.2,1000.3,166.7,1.1,3.2,227.4,0.40,24.0,25.2,"15:18:48",1
"22/07/18","15:30",0.0,32.1,60.6,1000.3,192.8,1.6,3.9,233.4,0.27,23.6,25.3,"15:21:52",1
"22/07/18","15:40",0.0,31.3,61.7,999.8,169.2,1.3,3.5,218.1,0.20,23.1,25.4,"15:37:04",1
"22/07/18","15:50",0.0,31.7,61.7,999.3,170.8,0.8,2.6,204.2,0.18,23.5,25.5,"15:42:40",1
"22/07/18","16:00",0.0,31.2,62.6,999.1,182.8,1.5,3.6,151.4,0.18,23.3,25.4,"15:52:08",1
"22/07/18","16:10",0.0,31.5,60.9,999.3,179.4,1.5,3.7,207.0,0.26,23.1,25.7,"16:04:16",1
"22/07/18","16:20",0.0,30.9,61.8,999.1,199.3,1.3,2.7,193.4,0.09,22.8,25.5,"16:11:28",1
"22/07/18","16:30",0.0,30.8,62.4,998.6,223.2,1.2,2.8,213.3,0.07,22.8,25.4,"16:22:24",1
"22/07/18","16:40",0.0,30.6,62.8,998.4,210.3,1.5,3.3,229.5,0.07,22.7,25.6,"16:36:16",1
"22/07/18","16:50",0.0,30.7,63.3,998.2,229.2,0.8,2.2,214.2,0.11,23.0,25.5,"16:40:32",1
"22/07/18","17:00",0.0,30.9,62.2,998.2,227.4,1.2,2.4,237.0,0.13,22.9,25.4,"16:55:52",1
"22/07/18","17:10",0.0,30.3,62.2,998.2,211.6,1.2,2.7,203.5,0.09,22.3,25.6,"17:01:04",1
"22/07/18","17:20",0.0,30.5,62.0,998.2,213.0,1.2,2.5,233.1,0.09,22.4,25.6,"17:19:44",1
"22/07/18","17:30",0.0,30.4,62.3,998.2,235.8,1.5,2.8,243.2,0.08,22.4,25.5,"17:23:04",1
"22/07/18","17:40",0.0,30.0,61.3,997.9,270.7,0.8,2.1,202.5,0.03,21.8,25.7,"17:30:16",1
"22/07/18","17:50",0.0,29.8,65.1,998.2,334.8,1.2,2.2,2.3,0.01,22.6,25.5,"17:40:02",1
"22/07/18","18:00",0.0,29.6,68.4,997.4,0.1,1.0,2.4,3.8,0.01,23.2,25.4,"17:50:08",1
"22/07/18","18:10",0.0,29.2,70.1,997.7,357.1,0.5,1.0,358.9,0.00,23.2,25.7,"18:07:12",1
"22/07/18","18:20",0.0,28.9,71.3,997.4,0.6,0.6,1.1,352.8,0.00,23.2,25.5,"18:15:28",1
"22/07/18","18:30",0.0,28.6,73.3,997.2,318.7,1.0,1.3,345.4,0.00,23.4,25.5,"18:20:56",1
"22/07/18","18:40",0.0,28.5,74.6,996.7,324.4,1.0,1.4,338.9,0.01,23.6,25.5,"18:34:16",1
"22/07/18","18:50",0.0,28.4,75.7,997.0,342.1,1.3,2.4,353.7,0.01,23.7,25.5,"18:40:02",1
"22/07/18","19:00",0.0,28.2,76.0,997.7,327.3,1.2,2.0,326.4,0.01,23.6,25.7,"18:55:12",1
"22/07/18","19:10",0.0,28.2,76.2,997.9,4.5,0.7,1.6,316.6,0.00,23.6,25.6,"19:01:44",1
"22/07/18","19:20",0.0,27.8,76.7,997.9,311.8,0.8,1.6,335.2,0.00,23.4,25.6,"19:12:24",1
"22/07/18","19:30",0.0,27.7,77.3,998.2,312.1,1.0,1.8,320.8,0.00,23.4,25.4,"19:24:48",1
"22/07/18","19:40",0.0,27.5,77.7,998.4,336.1,1.2,2.1,350.7,0.00,23.3,25.5,"19:31:20",1
"22/07/18","19:50",0.0,27.2,78.1,998.4,310.2,0.8,1.8,352.0,0.00,23.1,25.6,"19:42:00",1
"22/07/18","20:00",0.0,27.1,78.4,998.9,272.3,0.7,1.6,247.8,0.00,23.1,25.4,"19:52:56",1
"22/07/18","20:10",0.0,26.9,78.8,998.6,289.2,1.0,2.4,328.5,0.00,22.9,25.5,"20:07:12",1
"22/07/18","20:20",0.0,26.8,79.2,999.1,297.9,1.1,1.9,319.4,0.00,22.9,25.4,"20:17:52",1
"22/07/18","20:30",0.0,26.8,79.9,998.6,327.7,1.1,1.7,309.2,0.00,23.1,25.5,"20:22:32",1
"22/07/18","20:40",0.0,26.6,80.5,998.6,290.8,1.0,1.9,303.2,0.00,23.0,25.4,"20:34:56",1
"22/07/18","20:50",0.0,26.4,80.5,998.6,309.1,1.1,2.5,320.4,0.00,22.8,25.5,"20:44:56",1
"22/07/18","21:00",0.0,26.4,80.4,998.6,280.8,0.6,1.6,249.6,0.00,22.8,25.5,"20:52:56",1
"22/07/18","21:10",0.0,26.4,80.8,998.4,295.2,0.6,1.6,335.6,0.00,22.9,25.3,"21:09:44",1
"22/07/18","21:20",0.0,26.4,81.4,998.9,336.8,1.0,1.7,342.5,0.00,23.0,25.2,"21:11:04",1
"22/07/18","21:30",0.0,26.3,82.1,999.1,319.8,0.8,1.3,320.3,0.00,23.0,25.6,"21:27:28",1
"22/07/18","21:40",0.0,26.2,83.0,999.1,326.8,1.1,1.4,345.4,0.00,23.1,25.3,"21:30:32",1
"22/07/18","21:50",0.0,26.1,83.8,999.1,321.2,1.0,1.3,329.2,0.00,23.2,25.2,"21:46:40",1
"22/07/18","22:00",0.0,25.8,84.5,998.9,290.5,0.8,1.4,326.1,0.00,23.0,25.4,"21:51:36",1
"22/07/18","22:10",0.2,25.6,85.2,999.3,308.9,1.0,1.6,328.5,0.00,23.0,25.5,"22:02:56",1
"22/07/18","22:20",0.0,25.3,86.0,999.6,314.2,1.1,2.1,311.8,0.00,22.8,25.4,"22:14:00",1
"22/07/18","22:30",0.2,25.2,86.9,999.1,359.1,0.8,1.7,6.2,0.00,22.9,25.2,"22:26:00",1
"22/07/18","22:40",0.4,25.2,87.5,998.9,353.4,0.6,1.2,350.9,0.00,23.0,25.4,"22:34:00",1
"22/07/18","22:50",0.4,25.1,88.3,999.3,335.4,1.0,1.7,348.3,0.00,23.1,25.3,"22:45:20",1
"22/07/18","23:00",0.2,24.9,89.1,999.3,315.3,0.8,1.4,350.4,0.00,23.0,25.2,"22:50:56",1
"22/07/18","23:10",0.0,24.7,89.7,999.1,301.4,0.7,2.0,339.0,0.00,22.9,25.4,"23:01:20",1
"22/07/18","23:20",0.0,24.7,90.1,999.1,247.5,0.5,1.2,344.9,0.00,23.0,25.2,"23:16:00",1
"22/07/18","23:30",0.0,24.8,90.6,999.3,347.5,1.0,1.7,339.9,0.00,23.2,25.3,"23:21:52",1
"22/07/18","23:40",0.0,24.6,90.9,998.9,303.9,0.6,1.1,336.2,0.00,23.1,25.2,"23:30:40",1
"22/07/18","23:50",0.0,24.5,91.2,998.9,229.7,0.0,0.5,235.1,0.00,23.0,25.3,"23:40:08",1
"22/07/18","24:00",0.0,24.6,91.6,998.6,303.1,0.6,1.1,310.9,0.00,23.2,25.2,"23:57:44",1
